CZ-6A DEB, 56274

Orbit data source: Space-Track

CZ-6A DEB, 56274 is space debris in SSO originally from a launch on Fri, 11 Nov 2022 UTC launched from the Taiyaun Space Center, China (TSC). Debris objects in space refer to the collection of defunct objects orbiting the Earth. Examples of debris include non-operational satellites, rocket bodies, and fragments generated from explosions, collisions, or faulty payload assembly.

Loading next visibility...
Identifier
56274, 2022-151ACS
Orbit
SSO
Country
Flag of CNCN / PRC
Related business
Manufacturer
SAST
Mission
Spacecraft
Bus & Motor
Unknown
Mass
Unknown
Launch date (UTC)
2022-11-11 (4 years ago)
Launch vehicle
Unknown
Launch site
Taiyaun Space Center, China (TSC)
Object type
Payload
Rocket body
Debris
Shape & HBR
Unknown shape, 0.1 m
Radar Cross Section
Medium (>0.1 m² and <1 m²)

Expand to show TLE details & history
Last TLE update: 2 days ago

TLE from 2 days ago
0 CZ-6A DEB
1 56274U 22151ACS 26171.40093367  .00000128  00000-0  10301-3 0  9993
2 56274  98.8684 165.3312 0062630   0.8966 359.2303 14.05950735166913
Epoch: 2026-06-20T09:37Z
TLE epoch observation values (Epoch: 2026-06-20T09:37:20.669Z)
Latitude
-0.00007°
Longitude
112.379°
Altitude
830.731 km
Speed
7.461 km/s
True Right ascension
11h 01m 19s
True Declination
0° 00' 00"
Sunlit
Object was in daylight at epoch
Visualization orbit readout
Latitude
Unknown
Longitude
Unknown
Altitude
Unknown
Speed
Unknown
Apparent Right ascension
Unknown
Apparent Declination
Unknown
Sunlit
N/A
Visualization observer readout
Local Sidereal Time
21:25:22
Azimuth
Unknown
Elevation
Unknown
Doppler factor
Unknown
Orbital elements
Apogee altitude
915.844 km
Perigee altitude
825.048 km
Semi-major axis
7,248.583 km
Eccentricity
0.00626
Inclination
98.8684°
RAAN
165.3312°
Arg. of periapsis
0.8966°
True anomaly
359.22058°
Mean anomaly
359.2303°
Eccentric anomaly
359.22545°
Mean motion
3.51693 °/min
Orbital period
102.36 mins
BSTAR
0.00010301
Loading maneuver chart data...
Computing Atmospheric mass density...
Loading historical data...
Loading historical data...
Loading historical data...
Loading historical data...
Loading historical data...
Loading historical data...
Loading historical data...

Documentation

Showing up to 5 results
|